This is the latest recevied weather packets stored in our database for station/object KB1JLI. If no packets are shown the sender has not sent any weather packets the latest 10 day(s).
| Time | Temp. | Humidity | Pressure | Rain* | Wind** | Luminosity | Snow |
|---|---|---|---|---|---|---|---|
| 1777694967 | 7.22° C | 72% | 1012.1 hPa | 0 mm | - | 0 W/m² | - |
| 1777694664 | 7.22° C | 73% | 1012 hPa | 0 mm | - | 0 W/m² | - |
| 1777694360 | 7.22° C | 72% | 1011.9 hPa | 0 mm | - | 0 W/m² | - |
| 1777694057 | 7.22° C | 70% | 1011.8 hPa | 0 mm | - | 0 W/m² | - |
| 1777693755 | 7.22° C | 72% | 1012 hPa | 0 mm | - | 0 W/m² | - |
| 1777693453 | 6.67° C | 74% | 1012 hPa | 0 mm | - | 0 W/m² | - |
| 1777693151 | 6.67° C | 73% | 1011.8 hPa | 0 mm | - | 0 W/m² | - |
| 1777692849 | 7.22° C | 74% | 1011.8 hPa | 0 mm | - | 0 W/m² | - |
| 1777692545 | 7.22° C | 73% | 1011.9 hPa | 0 mm | - | 0 W/m² | - |
| 1777692241 | 6.67° C | 72% | 1011.9 hPa | 0 mm | - | 0 W/m² | - |
| 1777691939 | 6.67° C | 72% | 1011.8 hPa | 0 mm | - | 0 W/m² | - |
| 1777691637 | 6.67° C | 73% | 1011.7 hPa | 0 mm | - | 0 W/m² | - |
| 1777691335 | 6.67° C | 74% | 1011.8 hPa | 0 mm | - | 0 W/m² | - |
| 1777691033 | 6.67° C | 74% | 1011.8 hPa | 0 mm | - | 0 W/m² | - |
| 1777690730 | 6.67° C | 75% | 1011.6 hPa | 0 mm | - | 0 W/m² | - |
| 1777690427 | 6.67° C | 74% | 1011.8 hPa | 0 mm | - | 0 W/m² | - |
| 1777690125 | 7.22° C | 74% | 1011.8 hPa | 0 mm | - | 0 W/m² | - |
| 1777689823 | 6.11° C | 70% | 1011.7 hPa | 0 mm | - | 0 W/m² | - |
| 1777689520 | 6.67° C | 68% | 1011.6 hPa | 0 mm | - | 0 W/m² | - |
| 1777689218 | 6.67° C | 67% | 1011.7 hPa | 0 mm | - | 0 W/m² | - |
| 1777688916 | 6.67° C | 66% | 1011.6 hPa | 0 mm | - | 0 W/m² | - |
| 1777688612 | 6.67° C | 66% | 1011.6 hPa | 0 mm | - | 0 W/m² | - |
| 1777688309 | 6.67° C | 65% | 1011.6 hPa | 0 mm | - | 0 W/m² | - |
| 1777688006 | 7.22° C | 63% | 1011.6 hPa | 0 mm | - | 0 W/m² | - |
| 1777687703 | 6.67° C | 63% | 1011.7 hPa | 0 mm | - | 0 W/m² | - |
* Rain latest hour (hover to see other rain measurements)
** Current wind speed in m/s (hover to see current wind gust speed)